| time (UTC) | temp C | wind direction | speed KPH | gust KPH | rain 1hr cm | rain 24hr cm | rain mn cm | humidity % | barometer mb |
| 20260509102536 | 33 | 0 | 3.2 | 24.1 | 0.00 | 0.00 | 0.00 | 64 | 1008.0 |
| 20260509102019 | 33 | 24 | 9.7 | 27.4 | 0.00 | 0.00 | 0.00 | 64 | 1007.6 |
| 20260509101508 | 33 | 345 | 9.7 | 27.4 | 0.00 | 0.00 | 0.00 | 63 | 1007.7 |
| 20260509100959 | 33 | 66 | 4.8 | 32.2 | 0.00 | 0.00 | 0.00 | 62 | 1007.7 |
| 20260509100855 | 33 | 73 | 12.9 | 32.2 | 0.00 | 0.00 | 0.00 | 62 | 1007.5 |
| 20260509095948 | 34 | 43 | 16.1 | 27.4 | 0.00 | 0.00 | 0.00 | 62 | 1007.7 |
| 20260509095435 | 34 | 61 | 12.9 | 32.2 | 0.00 | 0.00 | 0.00 | 62 | 1007.4 |
| 20260509094919 | 34 | 58 | 9.7 | 32.2 | 0.00 | 0.00 | 0.00 | 61 | 1007.3 |
| 20260509094408 | 35 | 61 | 3.2 | 48.3 | 0.00 | 0.00 | 0.00 | 62 | 1007.3 |
| 20260509094321 | 35 | 32 | 6.4 | 69.2 | 0.00 | 0.00 | 0.00 | 65 | 1006.8 |
| 20260509093352 | 35 | 53 | 6.4 | 69.2 | 0.00 | 0.00 | 0.00 | 63 | 1006.9 |
| 20260509092844 | 35 | 15 | 3.2 | 48.3 | 0.00 | 0.00 | 0.00 | 63 | 1007.1 |
| 20260509092336 | 34 | 270 | 8.0 | 37.0 | 0.00 | 0.00 | 0.00 | 65 | 1006.8 |
| 20260509091828 | 35 | 235 | 22.5 | 32.2 | 0.00 | 0.00 | 0.00 | 65 | 1006.6 |
| 20260509091322 | 35 | 131 | 11.3 | 20.9 | 0.00 | 0.00 | 0.00 | 65 | 1006.8 |
| 20260509091214 | 35 | 312 | 1.6 | 24.1 | 0.00 | 0.00 | 0.00 | 64 | 1006.6 |
| 20260509090258 | 35 | 45 | 0.0 | 32.2 | 0.00 | 0.00 | 0.00 | 65 | 1006.6 |
| 20260509085755 | 35 | 147 | 22.5 | 72.4 | 0.00 | 0.00 | 0.00 | 65 | 1006.6 |
| 20260509085247 | 35 | 195 | 20.9 | 72.4 | 0.00 | 0.00 | 0.00 | 65 | 1006.2 |
| 20260509084739 | 35 | 161 | 41.8 | 64.4 | 0.00 | 0.00 | 0.00 | 65 | 1006.4 |
| 20260509084233 | 35 | 185 | 32.2 | 64.4 | 0.00 | 0.00 | 0.00 | 65 | 1006.2 |
| 20260509083731 | 36 | 335 | 0.0 | 64.4 | 0.00 | 0.00 | 0.00 | 64 | 1006.2 |
| 20260509083221 | 36 | 184 | 17.7 | 32.2 | 0.00 | 0.00 | 0.00 | 64 | 1006.4 |
| 20260509082712 | 36 | 174 | 9.7 | 27.4 | 0.00 | 0.00 | 0.00 | 64 | 1006.1 |
| 20260509082202 | 36 | 176 | 19.3 | 45.1 | 0.00 | 0.00 | 0.00 | 65 | 1006.1 |
| 20260509081700 | 35 | 14 | 1.6 | 45.1 | 0.00 | 0.00 | 0.00 | 64 | 1006.3 |
| 20260509081650 | 36 | 270 | 9.7 | 27.4 | 0.00 | 0.00 | 0.00 | 64 | 1006.4 |
| 20260509080642 | 36 | 83 | 1.6 | 27.4 | 0.00 | 0.00 | 0.00 | 64 | 1006.1 |
| 20260509080628 | 36 | 250 | 14.5 | 24.1 | 0.00 | 0.00 | 0.00 | 65 | 1006.4 |
| 20260509075625 | 35 | 203 | 3.2 | 40.2 | 0.00 | 0.00 | 0.00 | 64 | 1006.4 |
| 20260509075124 | 35 | 268 | 12.9 | 40.2 | 0.00 | 0.00 | 0.00 | 65 | 1006.3 |
| 20260509074607 | 35 | 170 | 20.9 | 40.2 | 0.00 | 0.00 | 0.00 | 65 | 1006.4 |
| 20260509074115 | 35 | 198 | 17.7 | 45.1 | 0.00 | 0.00 | 0.00 | 66 | 1006.6 |
| 20260509074101 | 35 | 211 | 19.3 | 37.0 | 0.00 | 0.00 | 0.00 | 65 | 1006.4 |
| 20260509073107 | 36 | 20 | 6.4 | 53.1 | 0.00 | 0.00 | 0.00 | 66 | 1006.4 |
| 20260509072544 | 35 | 357 | 3.2 | 72.4 | 0.00 | 0.00 | 0.00 | 65 | 1006.3 |
| 20260509072021 | 35 | 216 | 24.1 | 72.4 | 0.00 | 0.00 | 0.00 | 66 | 1006.5 |
| 20260509071501 | 35 | 142 | 19.3 | 64.4 | 0.00 | 0.00 | 0.00 | 66 | 1006.5 |
| 20260509070952 | 35 | 35 | 1.6 | 56.3 | 0.00 | 0.00 | 0.00 | 65 | 1006.8 |
| 20260509070443 | 35 | 131 | 20.9 | 56.3 | 0.00 | 0.00 | 0.00 | 66 | 1006.8 |
| 20260509065933 | 34 | 201 | 14.5 | 48.3 | 0.00 | 0.00 | 0.00 | 66 | 1006.8 |
| 20260509065430 | 35 | 96 | 6.4 | 48.3 | 0.00 | 0.00 | 0.00 | 65 | 1006.9 |
| 20260509064916 | 35 | 48 | 0.0 | 77.2 | 0.00 | 0.00 | 0.00 | 65 | 1006.9 |
| 20260509064410 | 35 | 114 | 4.8 | 77.2 | 0.00 | 0.00 | 0.00 | 65 | 1006.9 |
| 20260509063902 | 35 | 165 | 24.1 | 56.3 | 0.00 | 0.00 | 0.00 | 64 | 1006.9 |
| 20260509063352 | 35 | 177 | 11.3 | 48.3 | 0.00 | 0.00 | 0.00 | 64 | 1007.0 |
| 20260509062848 | 35 | 310 | 8.0 | 56.3 | 0.00 | 0.00 | 0.00 | 64 | 1007.1 |
| 20260509062329 | 35 | 165 | 29.0 | 56.3 | 0.00 | 0.00 | 0.00 | 65 | 1007.0 |
| 20260509061808 | 35 | 246 | 24.1 | 53.1 | 0.00 | 0.00 | 0.00 | 64 | 1007.2 |
| 20260509061300 | 35 | 358 | 9.7 | 27.4 | 0.00 | 0.00 | 0.00 | 65 | 1007.4 |
| 20260509060753 | 35 | 196 | 16.1 | 27.4 | 0.00 | 0.00 | 0.00 | 64 | 1007.1 |
| 20260509060249 | 35 | 332 | 0.0 | 24.1 | 0.00 | 0.00 | 0.00 | 64 | 1007.2 |
| 20260509055737 | 35 | 37 | 6.4 | 24.1 | 0.00 | 0.00 | 0.00 | 65 | 1007.4 |
| 20260509055219 | 35 | 67 | 6.4 | 32.2 | 0.00 | 0.00 | 0.00 | 65 | 1007.4 |
| 20260509055051 | 33 | 189 | 12.9 | 32.2 | 0.00 | 0.00 | 0.00 | 68 | 1007.4 |
| 20260509054201 | 33 | 232 | 24.1 | 32.2 | 0.00 | 0.00 | 0.00 | 69 | 1007.6 |
| 20260509053654 | 35 | 210 | 20.9 | 32.2 | 0.00 | 0.00 | 0.00 | 69 | 1007.4 |
| 20260509053146 | 34 | 18 | 0.0 | 32.2 | 0.00 | 0.00 | 0.00 | 68 | 1007.6 |
| 20260509052626 | 34 | 161 | 9.7 | 32.2 | 0.00 | 0.00 | 0.00 | 69 | 1007.7 |
| 20260509052108 | 34 | 204 | 19.3 | 32.2 | 0.00 | 0.00 | 0.00 | 68 | 1008.0 |
| 20260509051548 | 35 | 5 | 3.2 | 32.2 | 0.00 | 0.00 | 0.00 | 65 | 1007.9 |
| 20260509051041 | 35 | 332 | 9.7 | 32.2 | 0.00 | 0.00 | 0.00 | 66 | 1008.0 |
| 20260509050521 | 35 | 267 | 11.3 | 32.2 | 0.00 | 0.00 | 0.00 | 67 | 1008.2 |
| 20260509050011 | 34 | 320 | 14.5 | 37.0 | 0.00 | 0.00 | 0.00 | 68 | 1008.3 |
| 20260509045501 | 34 | 15 | 16.1 | 37.0 | 0.00 | 0.00 | 0.00 | 68 | 1008.3 |
| 20260509044959 | 33 | 351 | 1.6 | 27.4 | 0.00 | 0.00 | 0.00 | 70 | 1008.5 |
| 20260509044447 | 33 | 218 | 6.4 | 40.2 | 0.00 | 0.00 | 0.00 | 70 | 1008.9 |
| 20260509043938 | 33 | 218 | 20.9 | 27.4 | 0.00 | 0.00 | 0.00 | 70 | 1008.8 |
| 20260509043433 | 33 | 224 | 16.1 | 24.1 | 0.00 | 0.00 | 0.00 | 70 | 1008.9 |
| 20260509042925 | 33 | 16 | 6.4 | 20.9 | 0.00 | 0.00 | 0.00 | 70 | 1008.8 |
| 20260509042823 | 33 | 326 | 0.0 | 32.2 | 0.00 | 0.00 | 0.00 | 70 | 1009.0 |
| 20260509041909 | 32 | 177 | 8.0 | 32.2 | 0.00 | 0.00 | 0.00 | 71 | 1008.9 |
| 20260509041419 | 33 | 198 | 27.4 | 37.0 | 0.00 | 0.00 | 0.00 | 71 | 1009.3 |
| 20260509040903 | 33 | 114 | 3.2 | 37.0 | 0.00 | 0.00 | 0.00 | 70 | 1009.2 |
| 20260509040352 | 33 | 24 | 4.8 | 40.2 | 0.00 | 0.00 | 0.00 | 70 | 1009.2 |
| 20260509035842 | 33 | 188 | 20.9 | 40.2 | 0.00 | 0.00 | 0.00 | 72 | 1009.7 |
| 20260509035428 | 33 | 127 | 12.9 | 32.2 | 0.00 | 0.00 | 0.00 | 69 | 1009.3 |
| 20260509034254 | 33 | 194 | 17.7 | 45.1 | 0.00 | 0.00 | 0.00 | 70 | 1009.6 |
| 20260509033905 | 34 | 206 | 17.7 | 40.2 | 0.00 | 0.00 | 0.00 | 70 | 1009.6 |
| 20260509032732 | 33 | 44 | 4.8 | 40.2 | 0.00 | 0.00 | 0.00 | 71 | 1009.7 |
| 20260509032211 | 32 | 187 | 14.5 | 40.2 | 0.00 | 0.00 | 0.00 | 73 | 1009.5 |
| 20260509031653 | 33 | 199 | 16.1 | 37.0 | 0.00 | 0.00 | 0.00 | 70 | 1009.8 |
| 20260509031150 | 32 | 220 | 20.9 | 32.2 | 0.00 | 0.00 | 0.00 | 72 | 1010.0 |
| 20260509030645 | 33 | 218 | 9.7 | 37.0 | 0.00 | 0.00 | 0.00 | 70 | 1009.9 |
| 20260509030121 | 32 | 216 | 14.5 | 45.1 | 0.00 | 0.00 | 0.00 | 72 | 1009.9 |
| 20260509025620 | 31 | 193 | 27.4 | 45.1 | 0.00 | 0.00 | 0.00 | 75 | 1010.3 |
| 20260509025059 | 32 | 213 | 27.4 | 37.0 | 0.00 | 0.00 | 0.00 | 73 | 1010.0 |
| 20260509024914 | 32 | 213 | 9.7 | 40.2 | 0.00 | 0.00 | 0.00 | 72 | 1009.9 |
| 20260509024049 | 32 | 218 | 11.3 | 61.2 | 0.00 | 0.00 | 0.00 | 73 | 1010.1 |
| 20260509023911 | 32 | 189 | 22.5 | 61.2 | 0.00 | 0.00 | 0.00 | 71 | 1010.4 |
| 20260509023028 | 32 | 201 | 17.7 | 32.2 | 0.00 | 0.00 | 0.00 | 73 | 1010.3 |
| 20260509022525 | 32 | 242 | 1.6 | 27.4 | 0.00 | 0.00 | 0.00 | 72 | 1010.3 |
| 20260509022003 | 32 | 12 | 6.4 | 20.9 | 0.00 | 0.00 | 0.00 | 72 | 1010.2 |
| 20260509021453 | 32 | 251 | 11.3 | 37.0 | 0.00 | 0.00 | 0.00 | 72 | 1010.4 |
| 20260509020946 | 32 | 213 | 6.4 | 37.0 | 0.00 | 0.00 | 0.00 | 71 | 1010.3 |
| 20260509020438 | 33 | 142 | 6.4 | 20.9 | 0.00 | 0.00 | 0.00 | 70 | 1010.4 |
| 20260509015932 | 33 | 199 | 3.2 | 24.1 | 0.00 | 0.00 | 0.00 | 69 | 1010.6 |
| 20260509015432 | 32 | 25 | 0.0 | 27.4 | 0.00 | 0.00 | 0.00 | 71 | 1010.8 |
| 20260509014921 | 33 | 35 | 6.4 | 27.4 | 0.00 | 0.00 | 0.00 | 70 | 1010.7 |
| 20260509014409 | 35 | 29 | 3.2 | 20.9 | 0.00 | 0.00 | 0.00 | 64 | 1010.6 |
| 20260509013906 | 34 | 22 | 9.7 | 16.1 | 0.00 | 0.00 | 0.00 | 63 | 1010.5 |
| 20260509013812 | 34 | 61 | 9.7 | 16.1 | 0.00 | 0.00 | 0.00 | 62 | 1010.7 |
| 20260509012853 | 33 | 84 | 12.9 | 20.9 | 0.00 | 0.00 | 0.00 | 63 | 1010.6 |
| 20260509012344 | 34 | 61 | 9.7 | 16.1 | 0.00 | 0.00 | 0.00 | 63 | 1010.6 |
| 20260509011836 | 34 | 349 | 1.6 | 20.9 | 0.00 | 0.00 | 0.00 | 64 | 1010.8 |
| 20260509011319 | 33 | 15 | 1.6 | 20.9 | 0.00 | 0.00 | 0.00 | 64 | 1010.7 |
| 20260509010811 | 33 | 58 | 6.4 | 20.9 | 0.00 | 0.00 | 0.00 | 65 | 1010.7 |
| 20260509010303 | 33 | 163 | 9.7 | 20.9 | 0.00 | 0.00 | 0.00 | 66 | 1010.9 |
| 20260509005432 | 33 | 54 | 9.7 | 20.9 | 0.00 | 0.00 | 0.00 | 67 | 1010.8 |
| 20260509004208 | 32 | 61 | 6.4 | 24.1 | 0.00 | 0.00 | 0.00 | 68 | 1011.1 |
| 20260509003700 | 32 | 40 | 17.7 | 27.4 | 0.00 | 0.00 | 0.00 | 68 | 1010.9 |
| 20260509003152 | 32 | 41 | 3.2 | 27.4 | 0.00 | 0.00 | 0.00 | 68 | 1010.8 |
| 20260509002648 | 32 | 358 | 3.2 | 45.1 | 0.00 | 0.00 | 0.00 | 69 | 1010.7 |
| 20260509002513 | 32 | 20 | 4.8 | 45.1 | 0.00 | 0.00 | 0.00 | 71 | 1010.8 |
| 20260509001620 | 32 | 174 | 3.2 | 16.1 | 0.00 | 0.00 | 0.00 | 70 | 1010.9 |
| 20260509001114 | 31 | 282 | 0.0 | 20.9 | 0.00 | 0.00 | 0.00 | 71 | 1010.6 |
| 20260509000601 | 32 | 67 | 3.2 | 12.9 | 0.00 | 0.00 | 0.00 | 70 | 1010.9 |
| 20260509000110 | 32 | 32 | 3.2 | 12.9 | 0.00 | 0.00 | 0.00 | 70 | 1010.6 |
| 20260508235548 | 31 | 27 | 1.6 | 16.1 | 0.00 | 0.00 | 0.00 | 72 | 1010.7 |
| 20260508235031 | 31 | 46 | 0.0 | 16.1 | 0.00 | 0.00 | 0.00 | 72 | 1010.8 |
| 20260508234522 | 31 | 15 | 4.8 | 20.9 | 0.00 | 0.00 | 0.00 | 71 | 1010.5 |
| 20260508234337 | 31 | 350 | 1.6 | 20.9 | 0.00 | 0.00 | 0.00 | 73 | 1010.5 |
| 20260508233453 | 31 | 64 | 0.0 | 20.9 | 0.00 | 0.00 | 0.00 | 73 | 1010.5 |
| 20260508232952 | 31 | 20 | 4.8 | 20.9 | 0.00 | 0.00 | 0.00 | 74 | 1010.4 |
| 20260508232434 | 31 | 36 | 0.0 | 16.1 | 0.00 | 0.00 | 0.00 | 72 | 1010.3 |
| 20260508231934 | 31 | 18 | 6.4 | 16.1 | 0.00 | 0.00 | 0.00 | 74 | 1010.5 |
| 20260508231413 | 30 | 37 | 0.0 | 12.9 | 0.00 | 0.00 | 0.00 | 73 | 1010.2 |
| 20260508230901 | 30 | 30 | 3.2 | 12.9 | 0.00 | 0.00 | 0.00 | 74 | 1010.0 |
| 20260508230353 | 30 | 39 | 3.2 | 24.1 | 0.00 | 0.00 | 0.00 | 73 | 1010.3 |
| 20260508225843 | 30 | 33 | 0.0 | 24.1 | 0.00 | 0.00 | 0.00 | 75 | 1010.3 |
| 20260508225343 | 29 | 308 | 9.7 | 24.1 | 0.00 | 0.00 | 0.00 | 76 | 1010.0 |
| 20260508224818 | 29 | 336 | 14.5 | 24.1 | 0.00 | 0.00 | 0.00 | 76 | 1010.0 |
| 20260508224437 | 29 | 41 | 6.4 | 24.1 | 0.00 | 0.00 | 0.00 | 76 | 1009.9 |
| 20260508223645 | 29 | 341 | 9.7 | 12.9 | 0.00 | 0.00 | 0.00 | 77 | 1009.8 |
| 20260508222715 | 28 | 14 | 1.6 | 12.9 | 0.00 | 0.00 | 0.00 | 78 | 1009.7 |
| 20260508222151 | 28 | 9 | 1.6 | 8.0 | 0.00 | 0.00 | 0.00 | 78 | 1009.5 |
| 20260508221644 | 28 | 29 | 0.0 | 8.0 | 0.00 | 0.00 | 0.00 | 79 | 1009.4 |
| 20260508221135 | 28 | 32 | 0.0 | 3.2 | 0.00 | 0.00 | 0.00 | 79 | 1009.2 |
| 20260508220633 | 28 | 31 | 0.0 | 8.0 | 0.00 | 0.00 | 0.00 | 79 | 1009.2 |
| 20260508220534 | 28 | 20 | 0.0 | 8.0 | 0.00 | 0.00 | 0.00 | 79 | 1009.1 |
| 20260508215739 | 28 | 13 | 1.6 | 3.2 | 0.00 | 0.00 | 0.00 | 79 | 1009.2 |
| 20260508214600 | 28 | 65 | 0.0 | 0.0 | 0.00 | 0.00 | 0.00 | 79 | 1009.0 |
| 20260508214048 | 28 | 16 | 0.0 | 0.0 | 0.00 | 0.00 | 0.00 | 80 | 1009.2 |
| 20260508213642 | 28 | 24 | 0.0 | 0.0 | 0.00 | 0.00 | 0.00 | 80 | 1009.1 |
| 20260508212504 | 28 | 28 | 0.0 | 12.9 | 0.00 | 0.00 | 0.00 | 80 | 1008.9 |
| 20260508211954 | 28 | 16 | 1.6 | 16.1 | 0.00 | 0.00 | 0.00 | 80 | 1008.9 |
| 20260508211448 | 28 | 27 | 0.0 | 16.1 | 0.00 | 0.00 | 0.00 | 80 | 1008.8 |
| 20260508211342 | 28 | 24 | 1.6 | 16.1 | 0.00 | 0.00 | 0.00 | 80 | 1009.0 |
| 20260508210814 | 28 | 22 | 4.8 | 8.0 | 0.00 | 0.00 | 0.00 | 79 | 1008.8 |
| 20260508205916 | 28 | 36 | 0.0 | 3.2 | 0.00 | 0.00 | 0.00 | 79 | 1008.8 |
| 20260508205359 | 28 | 30 | 0.0 | 3.2 | 0.00 | 0.00 | 0.00 | 78 | 1009.1 |
| 20260508204844 | 28 | 38 | 0.0 | 3.2 | 0.00 | 0.00 | 0.00 | 78 | 1009.0 |
| 20260508204729 | 28 | 35 | 0.0 | 3.2 | 0.00 | 0.00 | 0.00 | 78 | 1008.7 |
| 20260508204218 | 28 | 39 | 0.0 | 8.0 | 0.00 | 0.00 | 0.00 | 78 | 1008.6 |
| 20260508203323 | 28 | 28 | 0.0 | 20.9 | 0.00 | 0.00 | 0.00 | 78 | 1008.6 |
| 20260508202810 | 28 | 33 | 6.4 | 20.9 | 0.00 | 0.00 | 0.00 | 78 | 1008.8 |
| 20260508202252 | 28 | 32 | 0.0 | 12.9 | 0.00 | 0.00 | 0.00 | 78 | 1008.8 |
| 20260508201745 | 28 | 77 | 3.2 | 24.1 | 0.00 | 0.00 | 0.00 | 78 | 1008.9 |
| 20260508201239 | 28 | 61 | 3.2 | 24.1 | 0.00 | 0.00 | 0.00 | 78 | 1008.5 |
| 20260508200729 | 28 | 25 | 1.6 | 20.9 | 0.00 | 0.00 | 0.00 | 78 | 1008.6 |
| 20260508200228 | 28 | 347 | 1.6 | 24.1 | 0.00 | 0.00 | 0.00 | 78 | 1008.9 |
| 20260508195704 | 28 | 37 | 0.0 | 24.1 | 0.00 | 0.00 | 0.00 | 78 | 1008.7 |
| 20260508195155 | 28 | 25 | 0.0 | 12.9 | 0.00 | 0.00 | 0.00 | 77 | 1008.8 |
| 20260508194649 | 28 | 43 | 0.0 | 12.9 | 0.00 | 0.00 | 0.00 | 77 | 1008.5 |
| 20260508194139 | 28 | 52 | 0.0 | 16.1 | 0.00 | 0.00 | 0.00 | 77 | 1008.4 |
| 20260508193634 | 28 | 56 | 8.0 | 16.1 | 0.00 | 0.00 | 0.00 | 77 | 1008.4 |
| 20260508193113 | 28 | 59 | 3.2 | 20.9 | 0.00 | 0.00 | 0.00 | 77 | 1008.5 |
| 20260508193057 | 29 | 55 | 1.6 | 20.9 | 0.00 | 0.00 | 0.00 | 77 | 1008.5 |
| 20260508192518 | 29 | 34 | 0.0 | 16.1 | 0.00 | 0.00 | 0.00 | 77 | 1008.5 |
| 20260508191537 | 29 | 68 | 4.8 | 16.1 | 0.00 | 0.00 | 0.00 | 77 | 1008.5 |
| 20260508191031 | 29 | 24 | 0.0 | 12.9 | 0.00 | 0.00 | 0.00 | 76 | 1008.8 |
| 20260508190935 | 29 | 40 | 3.2 | 12.9 | 0.00 | 0.00 | 0.00 | 76 | 1008.8 |
| 20260508190003 | 29 | 30 | 0.0 | 8.0 | 0.00 | 0.00 | 0.00 | 76 | 1008.7 |
| 20260508185459 | 29 | 34 | 0.0 | 8.0 | 0.00 | 0.00 | 0.00 | 76 | 1008.7 |
| 20260508184952 | 29 | 58 | 0.0 | 3.2 | 0.00 | 0.00 | 0.00 | 76 | 1008.6 |
| 20260508184448 | 29 | 26 | 0.0 | 8.0 | 0.00 | 0.00 | 0.00 | 76 | 1008.6 |
| 20260508183931 | 29 | 31 | 0.0 | 8.0 | 0.00 | 0.00 | 0.00 | 76 | 1008.5 |
| 20260508183806 | 29 | 39 | 1.6 | 8.0 | 0.00 | 0.00 | 0.00 | 76 | 1008.7 |
| 20260508182904 | 29 | 31 | 0.0 | 8.0 | 0.00 | 0.00 | 0.00 | 76 | 1008.6 |
| 20260508182359 | 29 | 41 | 0.0 | 8.0 | 0.00 | 0.00 | 0.00 | 76 | 1008.6 |
| 20260508181845 | 29 | 25 | 0.0 | 8.0 | 0.00 | 0.00 | 0.00 | 76 | 1008.9 |
| 20260508181342 | 29 | 27 | 0.0 | 16.1 | 0.00 | 0.00 | 0.00 | 76 | 1008.9 |
| 20260508180831 | 29 | 3 | 0.0 | 16.1 | 0.00 | 0.00 | 0.00 | 76 | 1008.9 |
| 20260508180312 | 29 | 77 | 8.0 | 12.9 | 0.00 | 0.00 | 0.00 | 76 | 1009.0 |
| 20260508175807 | 29 | 31 | 0.0 | 16.1 | 0.00 | 0.00 | 0.00 | 76 | 1008.9 |
| 20260508175255 | 29 | 68 | 0.0 | 16.1 | 0.00 | 0.00 | 0.00 | 76 | 1009.2 |
| 20260508174750 | 29 | 48 | 1.6 | 8.0 | 0.00 | 0.00 | 0.00 | 76 | 1008.9 |
| 20260508174245 | 29 | 42 | 0.0 | 8.0 | 0.00 | 0.00 | 0.00 | 76 | 1009.1 |
| 20260508174112 | 29 | 83 | 3.2 | 8.0 | 0.00 | 0.00 | 0.00 | 76 | 1009.2 |
| 20260508173226 | 29 | 27 | 0.0 | 3.2 | 0.00 | 0.00 | 0.00 | 76 | 1009.1 |
| 20260508172717 | 29 | 95 | 0.0 | 8.0 | 0.00 | 0.00 | 0.00 | 76 | 1009.5 |
| 20260508172209 | 29 | 30 | 0.0 | 8.0 | 0.00 | 0.00 | 0.00 | 76 | 1009.2 |
| 20260508171659 | 29 | 33 | 0.0 | 3.2 | 0.00 | 0.00 | 0.00 | 76 | 1009.4 |
| 20260508171156 | 29 | 69 | 0.0 | 16.1 | 0.00 | 0.00 | 0.00 | 76 | 1009.4 |
| 20260508170805 | 29 | 7 | 0.0 | 16.1 | 0.00 | 0.00 | 0.00 | 76 | 1009.5 |
| 20260508165630 | 29 | 30 | 0.0 | 12.9 | 0.00 | 0.00 | 0.00 | 76 | 1009.4 |
| 20260508165124 | 29 | 42 | 3.2 | 16.1 | 0.00 | 0.00 | 0.00 | 76 | 1009.4 |
| 20260508164617 | 29 | 33 | 0.0 | 16.1 | 0.00 | 0.00 | 0.00 | 76 | 1009.6 |
| 20260508164106 | 29 | 51 | 3.2 | 12.9 | 0.00 | 0.00 | 0.00 | 75 | 1009.7 |
| 20260508163559 | 29 | 333 | 4.8 | 16.1 | 0.00 | 0.00 | 0.00 | 75 | 1009.6 |
| 20260508163049 | 29 | 3 | 1.6 | 16.1 | 0.00 | 0.00 | 0.00 | 75 | 1009.6 |
| 20260508162543 | 29 | 80 | 4.8 | 20.9 | 0.00 | 0.00 | 0.00 | 75 | 1009.6 |
| 20260508162032 | 29 | 76 | 17.7 | 20.9 | 0.00 | 0.00 | 0.00 | 75 | 1009.6 |
| 20260508161622 | 29 | 36 | 0.0 | 16.1 | 0.00 | 0.00 | 0.00 | 75 | 1009.7 |
| 20260508160456 | 30 | 35 | 0.0 | 12.9 | 0.00 | 0.00 | 0.00 | 74 | 1009.8 |
| 20260508155948 | 30 | 32 | 0.0 | 12.9 | 0.00 | 0.00 | 0.00 | 74 | 1010.0 |
| 20260508155455 | 30 | 190 | 1.6 | 12.9 | 0.00 | 0.00 | 0.00 | 74 | 1010.1 |
| 20260508155341 | 30 | 27 | 0.0 | 12.9 | 0.00 | 0.00 | 0.00 | 74 | 1010.0 |
| 20260508154428 | 30 | 198 | 1.6 | 24.1 | 0.00 | 0.00 | 0.00 | 74 | 1009.8 |
| 20260508153918 | 30 | 18 | 8.0 | 24.1 | 0.00 | 0.00 | 0.00 | 73 | 1009.8 |
| 20260508153410 | 30 | 37 | 0.0 | 8.0 | 0.00 | 0.00 | 0.00 | 74 | 1010.0 |
| 20260508152900 | 30 | 31 | 0.0 | 8.0 | 0.00 | 0.00 | 0.00 | 73 | 1009.8 |
| 20260508152353 | 30 | 37 | 0.0 | 8.0 | 0.00 | 0.00 | 0.00 | 73 | 1009.8 |
| 20260508151907 | 30 | 66 | 6.4 | 24.1 | 0.00 | 0.00 | 0.00 | 73 | 1010.2 |
| 20260508151844 | 30 | 318 | 0.0 | 16.1 | 0.00 | 0.00 | 0.00 | 73 | 1009.9 |
| 20260508151220 | 30 | 262 | 8.0 | 24.1 | 0.00 | 0.00 | 0.00 | 73 | 1010.0 |
| 20260508150322 | 30 | 121 | 1.6 | 12.9 | 0.00 | 0.00 | 0.00 | 73 | 1010.0 |
| 20260508145817 | 30 | 13 | 0.0 | 12.9 | 0.00 | 0.00 | 0.00 | 73 | 1010.0 |
| 20260508145315 | 30 | 330 | 3.2 | 20.9 | 0.00 | 0.00 | 0.00 | 73 | 1010.0 |
| 20260508145308 | 30 | 206 | 1.6 | 12.9 | 0.00 | 0.00 | 0.00 | 73 | 1010.0 |
| 20260508144701 | 30 | 3 | 0.0 | 20.9 | 0.00 | 0.00 | 0.00 | 72 | 1009.9 |
| 20260508143748 | 30 | 28 | 0.0 | 16.1 | 0.00 | 0.00 | 0.00 | 72 | 1010.1 |
| 20260508143243 | 30 | 53 | 6.4 | 12.9 | 0.00 | 0.00 | 0.00 | 72 | 1010.1 |
| 20260508142725 | 30 | 352 | 4.8 | 24.1 | 0.00 | 0.00 | 0.00 | 72 | 1010.3 |
| 20260508142216 | 30 | 305 | 4.8 | 40.2 | 0.00 | 0.00 | 0.00 | 72 | 1010.4 |
| 20260508141708 | 30 | 35 | 4.8 | 40.2 | 0.00 | 0.00 | 0.00 | 71 | 1010.4 |
| 20260508141202 | 30 | 42 | 0.0 | 20.9 | 0.00 | 0.00 | 0.00 | 71 | 1010.4 |
| 20260508140643 | 30 | 58 | 0.0 | 16.1 | 0.00 | 0.00 | 0.00 | 71 | 1010.3 |
| 20260508140138 | 30 | 29 | 0.0 | 16.1 | 0.00 | 0.00 | 0.00 | 71 | 1010.3 |
| 20260508135625 | 30 | 57 | 3.2 | 12.9 | 0.00 | 0.00 | 0.00 | 71 | 1010.4 |
| 20260508135119 | 30 | 33 | 0.0 | 12.9 | 0.00 | 0.00 | 0.00 | 71 | 1010.3 |
| 20260508134612 | 30 | 108 | 1.6 | 16.1 | 0.00 | 0.00 | 0.00 | 71 | 1010.0 |
| 20260508134101 | 31 | 22 | 0.0 | 16.1 | 0.00 | 0.00 | 0.00 | 71 | 1010.1 |
| 20260508133556 | 31 | 30 | 3.2 | 12.9 | 0.00 | 0.00 | 0.00 | 71 | 1009.9 |
| 20260508133047 | 31 | 85 | 4.8 | 16.1 | 0.00 | 0.00 | 0.00 | 70 | 1010.0 |
| 20260508132541 | 31 | 29 | 0.0 | 24.1 | 0.00 | 0.00 | 0.00 | 70 | 1010.1 |
| 20260508132037 | 31 | 76 | 11.3 | 24.1 | 0.00 | 0.00 | 0.00 | 70 | 1010.1 |
| 20260508131522 | 31 | 26 | 0.0 | 12.9 | 0.00 | 0.00 | 0.00 | 70 | 1009.9 |
| 20260508131017 | 31 | 11 | 0.0 | 12.9 | 0.00 | 0.00 | 0.00 | 70 | 1009.8 |
| 20260508130608 | 31 | 32 | 0.0 | 20.9 | 0.00 | 0.00 | 0.00 | 70 | 1009.9 |
| 20260508125442 | 31 | 30 | 3.2 | 12.9 | 0.00 | 0.00 | 0.00 | 70 | 1009.7 |
| 20260508124938 | 31 | 50 | 0.0 | 20.9 | 0.00 | 0.00 | 0.00 | 70 | 1009.5 |
| 20260508124430 | 31 | 11 | 1.6 | 20.9 | 0.00 | 0.00 | 0.00 | 69 | 1009.5 |
| 20260508123917 | 31 | 33 | 3.2 | 20.9 | 0.00 | 0.00 | 0.00 | 69 | 1009.4 |
| 20260508123412 | 31 | 39 | 3.2 | 27.4 | 0.00 | 0.00 | 0.00 | 69 | 1009.2 |
| 20260508122849 | 31 | 60 | 11.3 | 27.4 | 0.00 | 0.00 | 0.00 | 69 | 1009.2 |
| 20260508122341 | 31 | 55 | 0.0 | 45.1 | 0.00 | 0.00 | 0.00 | 69 | 1009.2 |
| 20260508121829 | 31 | 65 | 6.4 | 45.1 | 0.00 | 0.00 | 0.00 | 69 | 1009.2 |
| 20260508121331 | 31 | 64 | 1.6 | 27.4 | 0.00 | 0.00 | 0.00 | 69 | 1009.0 |
| 20260508120820 | 31 | 111 | 16.1 | 27.4 | 0.00 | 0.00 | 0.00 | 69 | 1009.1 |
| 20260508120311 | 31 | 205 | 9.7 | 16.1 | 0.00 | 0.00 | 0.00 | 69 | 1008.8 |
| 20260508115758 | 31 | 66 | 8.0 | 20.9 | 0.00 | 0.00 | 0.00 | 69 | 1009.0 |
| 20260508115654 | 31 | 58 | 8.0 | 20.9 | 0.00 | 0.00 | 0.00 | 69 | 1008.9 |
| 20260508114757 | 31 | 25 | 1.6 | 24.1 | 0.00 | 0.00 | 0.00 | 69 | 1008.8 |
| 20260508114247 | 31 | 300 | 4.8 | 24.1 | 0.00 | 0.00 | 0.00 | 69 | 1008.7 |
| 20260508114137 | 32 | 7 | 4.8 | 24.1 | 0.00 | 0.00 | 0.00 | 69 | 1008.5 |
| 20260508113216 | 32 | 35 | 1.6 | 16.1 | 0.00 | 0.00 | 0.00 | 69 | 1008.5 |
| 20260508112709 | 32 | 298 | 0.0 | 16.1 | 0.00 | 0.00 | 0.00 | 68 | 1008.2 |
| 20260508112201 | 32 | 24 | 0.0 | 16.1 | 0.00 | 0.00 | 0.00 | 68 | 1008.2 |
| 20260508112049 | 32 | 7 | 0.0 | 20.9 | 0.00 | 0.00 | 0.00 | 68 | 1008.3 |
| 20260508111148 | 32 | 56 | 0.0 | 27.4 | 0.00 | 0.00 | 0.00 | 68 | 1008.2 |
| 20260508110635 | 32 | 29 | 0.0 | 27.4 | 0.00 | 0.00 | 0.00 | 68 | 1008.3 |
| 20260508110533 | 32 | 51 | 0.0 | 48.3 | 0.00 | 0.00 | 0.00 | 68 | 1008.3 |
| 20260508105624 | 32 | 40 | 6.4 | 48.3 | 0.00 | 0.00 | 0.00 | 67 | 1008.2 |
| 20260508105112 | 32 | 275 | 6.4 | 27.4 | 0.00 | 0.00 | 0.00 | 67 | 1007.8 |
| 20260508104608 | 32 | 96 | 3.2 | 27.4 | 0.00 | 0.00 | 0.00 | 66 | 1007.8 |
| 20260508104100 | 32 | 37 | 1.6 | 37.0 | 0.00 | 0.00 | 0.00 | 66 | 1007.9 |
| 20260508103603 | 33 | 16 | 14.5 | 37.0 | 0.00 | 0.00 | 0.00 | 66 | 1007.9 |
| 20260508103457 | 33 | 342 | 9.7 | 32.2 | 0.00 | 0.00 | 0.00 | 66 | 1007.7 |